| time (UTC) | temp C | wind direction | speed KPH | gust KPH | rain 1hr cm | rain 24hr cm | rain mn cm | humidity % | barometer mb |
| 20260505130228 | 12 | 75 | 0.0 | 3.2 | 0.00 | 0.00 | 0.00 | 84 | 1015.6 |
| 20260505124735 | 12 | 30 | 0.0 | 3.2 | 0.00 | 0.00 | 0.00 | 85 | 1015.5 |
| 20260505124223 | 12 | 311 | 0.0 | 0.0 | 0.00 | 0.00 | 0.00 | 85 | 1015.5 |
| 20260505123810 | 12 | 192 | 0.0 | 0.0 | 0.00 | 0.00 | 0.00 | 84 | 1015.5 |
| 20260505123738 | 12 | 192 | 0.0 | 0.0 | 0.00 | 0.00 | 0.00 | 84 | 1015.5 |
| 20260505123226 | 12 | 82 | 0.0 | 3.2 | 0.00 | 0.00 | 0.00 | 85 | 1015.5 |
| 20260505122753 | 12 | 82 | 0.0 | 3.2 | 0.00 | 0.00 | 0.00 | 85 | 1015.4 |
| 20260505122721 | 12 | 82 | 0.0 | 3.2 | 0.00 | 0.00 | 0.00 | 85 | 1015.4 |
| 20260505122229 | 12 | 124 | 1.6 | 3.2 | 0.00 | 0.00 | 0.00 | 85 | 1015.4 |
| 20260505121732 | 12 | 139 | 0.0 | 4.8 | 0.00 | 0.00 | 0.00 | 85 | 1015.4 |
| 20260505121235 | 12 | 244 | 0.0 | 4.8 | 0.00 | 0.00 | 0.00 | 85 | 1015.5 |
| 20260505120803 | 12 | 134 | 1.6 | 3.2 | 0.00 | 0.00 | 0.00 | 85 | 1015.4 |
| 20260505120239 | 12 | 85 | 0.0 | 1.6 | 0.00 | 0.00 | 0.00 | 85 | 1015.4 |
| 20260505115726 | 12 | 85 | 0.0 | 3.2 | 0.00 | 0.00 | 0.00 | 85 | 1015.4 |
| 20260505115238 | 12 | 85 | 1.6 | 3.2 | 0.00 | 0.00 | 0.00 | 85 | 1015.3 |
| 20260505114726 | 12 | 61 | 0.0 | 4.8 | 0.00 | 0.00 | 0.00 | 85 | 1015.3 |
| 20260505114234 | 12 | 71 | 1.6 | 4.8 | 0.00 | 0.00 | 0.00 | 85 | 1015.4 |
| 20260505113802 | 12 | 219 | 0.0 | 4.8 | 0.00 | 0.00 | 0.00 | 85 | 1015.3 |
| 20260505113730 | 12 | 219 | 0.0 | 4.8 | 0.00 | 0.00 | 0.00 | 85 | 1015.3 |
| 20260505113238 | 12 | 87 | 0.0 | 3.2 | 0.00 | 0.00 | 0.00 | 85 | 1015.3 |
| 20260505112805 | 12 | 104 | 0.0 | 3.2 | 0.00 | 0.00 | 0.00 | 85 | 1015.3 |
| 20260505112733 | 12 | 104 | 0.0 | 3.2 | 0.00 | 0.00 | 0.00 | 85 | 1015.3 |
| 20260505112221 | 12 | 146 | 0.0 | 3.2 | 0.00 | 0.00 | 0.00 | 85 | 1015.3 |
| 20260505111729 | 12 | 57 | 1.6 | 4.8 | 0.00 | 0.00 | 0.00 | 85 | 1015.3 |
| 20260505111257 | 12 | 190 | 1.6 | 4.8 | 0.00 | 0.00 | 0.00 | 85 | 1015.3 |
| 20260505110812 | 12 | 109 | 1.6 | 3.2 | 0.00 | 0.00 | 0.00 | 85 | 1015.2 |
| 20260505110740 | 12 | 109 | 1.6 | 3.2 | 0.00 | 0.00 | 0.00 | 85 | 1015.2 |
| 20260505110228 | 12 | 177 | 0.0 | 4.8 | 0.00 | 0.00 | 0.00 | 85 | 1015.2 |
| 20260505102222 | 12 | 59 | 0.0 | 3.2 | 0.00 | 0.00 | 0.00 | 86 | 1014.9 |
| 20260505101810 | 12 | 171 | 0.0 | 3.2 | 0.00 | 0.00 | 0.00 | 87 | 1014.8 |
| 20260505101305 | 12 | 171 | 0.0 | 3.2 | 0.00 | 0.00 | 0.00 | 87 | 1014.8 |
| 20260505100722 | 12 | 219 | 0.0 | 3.2 | 0.00 | 0.00 | 0.00 | 87 | 1014.7 |
| 20260505100230 | 12 | 174 | 1.6 | 4.8 | 0.00 | 0.00 | 0.00 | 87 | 1014.8 |
| 20260505095757 | 12 | 38 | 0.0 | 3.2 | 0.00 | 0.00 | 0.00 | 87 | 1014.8 |
| 20260505095254 | 12 | 52 | 0.0 | 4.8 | 0.00 | 0.00 | 0.00 | 87 | 1014.8 |
| 20260505094810 | 11 | 16 | 0.0 | 4.8 | 0.00 | 0.00 | 0.00 | 88 | 1014.7 |
| 20260505094738 | 11 | 16 | 0.0 | 4.8 | 0.00 | 0.00 | 0.00 | 88 | 1014.7 |
| 20260505094306 | 11 | 53 | 0.0 | 4.8 | 0.00 | 0.00 | 0.00 | 88 | 1014.8 |
| 20260505093723 | 11 | 71 | 1.6 | 4.8 | 0.00 | 0.00 | 0.00 | 89 | 1014.7 |
| 20260505093311 | 11 | 88 | 0.0 | 3.2 | 0.00 | 0.00 | 0.00 | 89 | 1014.6 |
| 20260505092726 | 11 | 11 | 0.0 | 3.2 | 0.00 | 0.00 | 0.00 | 89 | 1014.7 |
| 20260505092234 | 11 | 24 | 0.0 | 1.6 | 0.00 | 0.00 | 0.00 | 89 | 1014.6 |
| 20260505091801 | 11 | 24 | 0.0 | 0.0 | 0.00 | 0.00 | 0.00 | 89 | 1014.6 |
| 20260505091237 | 11 | 24 | 0.0 | 1.6 | 0.00 | 0.00 | 0.00 | 89 | 1014.6 |
| 20260505090805 | 11 | 24 | 0.0 | 1.6 | 0.00 | 0.00 | 0.00 | 90 | 1014.5 |
| 20260505090301 | 11 | 20 | 0.0 | 0.0 | 0.00 | 0.00 | 0.00 | 90 | 1014.5 |
| 20260505085736 | 11 | 20 | 0.0 | 0.0 | 0.00 | 0.00 | 0.00 | 89 | 1014.4 |
| 20260505085305 | 11 | 20 | 0.0 | 0.0 | 0.00 | 0.00 | 0.00 | 89 | 1014.4 |
| 20260505084725 | 11 | 20 | 0.0 | 0.0 | 0.00 | 0.00 | 0.00 | 89 | 1014.5 |
| 20260505084253 | 11 | 20 | 0.0 | 0.0 | 0.00 | 0.00 | 0.00 | 89 | 1014.4 |
| 20260505084221 | 11 | 20 | 0.0 | 0.0 | 0.00 | 0.00 | 0.00 | 89 | 1014.4 |
| 20260505083729 | 11 | 20 | 0.0 | 0.0 | 0.00 | 0.00 | 0.00 | 88 | 1014.5 |
| 20260505083237 | 11 | 20 | 0.0 | 0.0 | 0.00 | 0.00 | 0.00 | 88 | 1014.4 |
| 20260505082804 | 11 | 20 | 0.0 | 0.0 | 0.00 | 0.00 | 0.00 | 88 | 1014.4 |
| 20260505082732 | 11 | 20 | 0.0 | 0.0 | 0.00 | 0.00 | 0.00 | 88 | 1014.4 |
| 20260505082259 | 11 | 20 | 0.0 | 0.0 | 0.00 | 0.00 | 0.00 | 88 | 1014.4 |
| 20260505081736 | 11 | 20 | 0.0 | 0.0 | 0.00 | 0.00 | 0.00 | 88 | 1014.4 |
| 20260505081224 | 11 | 20 | 0.0 | 1.6 | 0.00 | 0.00 | 0.00 | 88 | 1014.3 |
| 20260505080811 | 11 | 20 | 0.0 | 3.2 | 0.00 | 0.00 | 0.00 | 88 | 1014.3 |
| 20260505080228 | 11 | 20 | 0.0 | 3.2 | 0.00 | 0.00 | 0.00 | 88 | 1014.2 |
| 20260505075735 | 11 | 20 | 0.0 | 0.0 | 0.00 | 0.00 | 0.00 | 87 | 1014.2 |
| 20260505075304 | 11 | 20 | 0.0 | 0.0 | 0.00 | 0.00 | 0.00 | 87 | 1014.2 |
| 20260505075231 | 11 | 20 | 0.0 | 0.0 | 0.00 | 0.00 | 0.00 | 87 | 1014.2 |
| 20260505074738 | 11 | 20 | 0.0 | 3.2 | 0.00 | 0.00 | 0.00 | 87 | 1014.1 |
| 20260505074226 | 12 | 20 | 0.0 | 3.2 | 0.00 | 0.00 | 0.00 | 87 | 1014.1 |
| 20260505073734 | 12 | 20 | 0.0 | 3.2 | 0.00 | 0.00 | 0.00 | 86 | 1014.0 |
| 20260505073226 | 12 | 20 | 0.0 | 1.6 | 0.00 | 0.00 | 0.00 | 86 | 1013.9 |
| 20260505072733 | 12 | 20 | 0.0 | 1.6 | 0.00 | 0.00 | 0.00 | 86 | 1013.8 |
| 20260505072301 | 12 | 261 | 0.0 | 0.0 | 0.00 | 0.00 | 0.00 | 85 | 1013.8 |
| 20260505071738 | 12 | 261 | 0.0 | 0.0 | 0.00 | 0.00 | 0.00 | 85 | 1013.8 |
| 20260505071226 | 12 | 261 | 0.0 | 0.0 | 0.00 | 0.00 | 0.00 | 85 | 1013.7 |
| 20260505070734 | 12 | 261 | 0.0 | 0.0 | 0.00 | 0.00 | 0.00 | 85 | 1013.7 |
| 20260505070222 | 12 | 261 | 0.0 | 0.0 | 0.00 | 0.00 | 0.00 | 84 | 1013.6 |
| 20260505065729 | 12 | 261 | 0.0 | 0.0 | 0.00 | 0.00 | 0.00 | 84 | 1013.5 |
| 20260505065237 | 12 | 261 | 0.0 | 0.0 | 0.00 | 0.00 | 0.00 | 83 | 1013.5 |
| 20260505064725 | 12 | 261 | 0.0 | 0.0 | 0.00 | 0.00 | 0.00 | 83 | 1013.5 |
| 20260505064253 | 12 | 261 | 0.0 | 3.2 | 0.00 | 0.00 | 0.00 | 83 | 1013.5 |
| 20260505063733 | 12 | 261 | 0.0 | 3.2 | 0.00 | 0.00 | 0.00 | 83 | 1013.4 |
| 20260505063241 | 13 | 288 | 0.0 | 3.2 | 0.00 | 0.00 | 0.00 | 82 | 1013.3 |
| 20260505062808 | 13 | 304 | 0.0 | 3.2 | 0.00 | 0.00 | 0.00 | 82 | 1013.4 |
| 20260505062224 | 13 | 304 | 0.0 | 3.2 | 0.00 | 0.00 | 0.00 | 81 | 1013.3 |
| 20260505061731 | 13 | 311 | 0.0 | 3.2 | 0.00 | 0.00 | 0.00 | 81 | 1013.3 |
| 20260505061259 | 13 | 248 | 0.0 | 3.2 | 0.00 | 0.00 | 0.00 | 81 | 1013.1 |
| 20260505060755 | 13 | 247 | 0.0 | 3.2 | 0.00 | 0.00 | 0.00 | 80 | 1013.1 |
| 20260505060312 | 13 | 247 | 0.0 | 4.8 | 0.00 | 0.00 | 0.00 | 80 | 1013.1 |
| 20260505060240 | 13 | 247 | 0.0 | 4.8 | 0.00 | 0.00 | 0.00 | 80 | 1013.1 |
| 20260505055727 | 13 | 215 | 0.0 | 4.8 | 0.00 | 0.00 | 0.00 | 79 | 1013.1 |
| 20260505055235 | 13 | 142 | 0.0 | 4.8 | 0.00 | 0.00 | 0.00 | 79 | 1013.1 |
| 20260505054803 | 13 | 127 | 1.6 | 6.4 | 0.00 | 0.00 | 0.00 | 79 | 1013.1 |
| 20260505054731 | 13 | 127 | 1.6 | 6.4 | 0.00 | 0.00 | 0.00 | 79 | 1013.1 |
| 20260505054239 | 13 | 180 | 1.6 | 4.8 | 0.00 | 0.00 | 0.00 | 78 | 1012.9 |
| 20260505053727 | 14 | 88 | 0.0 | 3.2 | 0.00 | 0.00 | 0.00 | 78 | 1012.9 |
| 20260505053235 | 14 | 195 | 0.0 | 6.4 | 0.00 | 0.00 | 0.00 | 77 | 1012.9 |
| 20260505052722 | 14 | 227 | 1.6 | 6.4 | 0.00 | 0.00 | 0.00 | 76 | 1012.9 |
| 20260505052234 | 15 | 38 | 1.6 | 11.3 | 0.00 | 0.00 | 0.00 | 76 | 1013.0 |
| 20260505051802 | 15 | 282 | 3.2 | 11.3 | 0.00 | 0.00 | 0.00 | 76 | 1013.0 |
| 20260505051258 | 15 | 13 | 1.6 | 4.8 | 0.00 | 0.00 | 0.00 | 75 | 1013.0 |
| 20260505050735 | 15 | 255 | 0.0 | 3.2 | 0.00 | 0.00 | 0.00 | 75 | 1012.9 |
| 20260505050223 | 15 | 193 | 0.0 | 3.2 | 0.00 | 0.00 | 0.00 | 74 | 1012.8 |
| 20260505041725 | 17 | 125 | 1.6 | 3.2 | 0.00 | 0.00 | 0.00 | 69 | 1012.1 |
| 20260505041233 | 17 | 341 | 0.0 | 3.2 | 0.00 | 0.00 | 0.00 | 68 | 1012.0 |
| 20260505040721 | 17 | 281 | 1.6 | 9.7 | 0.00 | 0.00 | 0.00 | 68 | 1011.9 |
| 20260505040309 | 17 | 273 | 1.6 | 9.7 | 0.00 | 0.00 | 0.00 | 67 | 1011.9 |
| 20260505035725 | 17 | 67 | 1.6 | 4.8 | 0.00 | 0.00 | 0.00 | 67 | 1011.8 |
| 20260505035233 | 17 | 143 | 0.0 | 4.8 | 0.00 | 0.00 | 0.00 | 65 | 1011.7 |
| 20260505034721 | 18 | 338 | 0.0 | 6.4 | 0.00 | 0.00 | 0.00 | 65 | 1011.7 |
| 20260505034229 | 18 | 283 | 3.2 | 6.4 | 0.00 | 0.00 | 0.00 | 64 | 1011.7 |
| 20260505033737 | 18 | 94 | 0.0 | 4.8 | 0.00 | 0.00 | 0.00 | 64 | 1011.7 |
| 20260505033304 | 18 | 25 | 0.0 | 3.2 | 0.00 | 0.00 | 0.00 | 63 | 1011.4 |
| 20260505032740 | 18 | 210 | 1.6 | 4.8 | 0.00 | 0.00 | 0.00 | 62 | 1011.4 |
| 20260505032232 | 19 | 311 | 1.6 | 4.8 | 0.00 | 0.00 | 0.00 | 62 | 1011.5 |
| 20260505031740 | 19 | 202 | 0.0 | 11.3 | 0.00 | 0.00 | 0.00 | 61 | 1011.5 |
| 20260505031228 | 20 | 96 | 3.2 | 6.4 | 0.00 | 0.00 | 0.00 | 60 | 1011.3 |
| 20260505030736 | 20 | 286 | 0.0 | 6.4 | 0.00 | 0.00 | 0.00 | 60 | 1011.1 |
| 20260505030304 | 20 | 228 | 0.0 | 8.0 | 0.00 | 0.00 | 0.00 | 58 | 1011.2 |
| 20260505025739 | 20 | 228 | 1.6 | 8.0 | 0.00 | 0.00 | 0.00 | 57 | 1011.1 |
| 20260505025227 | 21 | 34 | 0.0 | 3.2 | 0.00 | 0.00 | 0.00 | 56 | 1011.1 |
| 20260505024735 | 21 | 163 | 0.0 | 6.4 | 0.00 | 0.00 | 0.00 | 55 | 1011.0 |
| 20260505024223 | 21 | 149 | 1.6 | 4.8 | 0.00 | 0.00 | 0.00 | 55 | 1011.0 |
| 20260505023731 | 21 | 272 | 1.6 | 4.8 | 0.00 | 0.00 | 0.00 | 53 | 1010.9 |
| 20260505023222 | 22 | 294 | 1.6 | 4.8 | 0.00 | 0.00 | 0.00 | 52 | 1010.8 |
| 20260505022729 | 22 | 260 | 1.6 | 4.8 | 0.00 | 0.00 | 0.00 | 52 | 1010.9 |
| 20260505022236 | 22 | 285 | 1.6 | 6.4 | 0.00 | 0.00 | 0.00 | 51 | 1010.9 |
| 20260505021724 | 23 | 188 | 1.6 | 6.4 | 0.00 | 0.00 | 0.00 | 51 | 1010.9 |
| 20260505021231 | 23 | 190 | 1.6 | 8.0 | 0.00 | 0.00 | 0.00 | 51 | 1010.9 |
| 20260505020739 | 23 | 252 | 1.6 | 8.0 | 0.00 | 0.00 | 0.00 | 51 | 1010.8 |
| 20260505020227 | 23 | 153 | 3.2 | 8.0 | 0.00 | 0.00 | 0.00 | 50 | 1010.8 |
| 20260505015753 | 24 | 185 | 1.6 | 8.0 | 0.00 | 0.00 | 0.00 | 49 | 1010.8 |
| 20260505015230 | 25 | 171 | 3.2 | 6.4 | 0.00 | 0.00 | 0.00 | 48 | 1010.8 |
| 20260505014738 | 25 | 277 | 1.6 | 8.0 | 0.00 | 0.00 | 0.00 | 48 | 1010.9 |
| 20260505014307 | 25 | 267 | 4.8 | 9.7 | 0.00 | 0.00 | 0.00 | 46 | 1010.9 |
| 20260505014234 | 25 | 267 | 4.8 | 9.7 | 0.00 | 0.00 | 0.00 | 46 | 1010.9 |
| 20260505013722 | 25 | 238 | 1.6 | 4.8 | 0.00 | 0.00 | 0.00 | 47 | 1010.9 |
| 20260505013310 | 25 | 143 | 1.6 | 3.2 | 0.00 | 0.00 | 0.00 | 46 | 1010.9 |
| 20260505012804 | 25 | 243 | 0.0 | 3.2 | 0.00 | 0.00 | 0.00 | 46 | 1010.9 |
| 20260505012225 | 25 | 303 | 1.6 | 6.4 | 0.00 | 0.00 | 0.00 | 45 | 1011.0 |
| 20260505011733 | 25 | 252 | 1.6 | 6.4 | 0.00 | 0.00 | 0.00 | 44 | 1011.1 |
| 20260505011301 | 26 | 313 | 1.6 | 4.8 | 0.00 | 0.00 | 0.00 | 43 | 1011.1 |
| 20260505011229 | 26 | 313 | 1.6 | 4.8 | 0.00 | 0.00 | 0.00 | 43 | 1011.1 |
| 20260505010737 | 26 | 49 | 1.6 | 4.8 | 0.00 | 0.00 | 0.00 | 43 | 1011.1 |
| 20260505010225 | 26 | 53 | 0.0 | 6.4 | 0.00 | 0.00 | 0.00 | 42 | 1011.2 |
| 20260505005732 | 26 | 355 | 1.6 | 6.4 | 0.00 | 0.00 | 0.00 | 41 | 1011.2 |
| 20260505005300 | 26 | 61 | 0.0 | 3.2 | 0.00 | 0.00 | 0.00 | 41 | 1011.3 |
| 20260505005228 | 26 | 61 | 0.0 | 3.2 | 0.00 | 0.00 | 0.00 | 41 | 1011.3 |
| 20260505004756 | 26 | 346 | 0.0 | 6.4 | 0.00 | 0.00 | 0.00 | 40 | 1011.1 |
| 20260505004724 | 26 | 346 | 0.0 | 6.4 | 0.00 | 0.00 | 0.00 | 40 | 1011.1 |
| 20260505004232 | 26 | 289 | 1.6 | 8.0 | 0.00 | 0.00 | 0.00 | 42 | 1011.2 |
| 20260505003740 | 26 | 193 | 1.6 | 8.0 | 0.00 | 0.00 | 0.00 | 39 | 1011.1 |
| 20260505003308 | 26 | 5 | 3.2 | 8.0 | 0.00 | 0.00 | 0.00 | 38 | 1011.0 |
| 20260505002723 | 26 | 85 | 3.2 | 6.4 | 0.00 | 0.00 | 0.00 | 39 | 1011.1 |
| 20260505002231 | 26 | 328 | 1.6 | 9.7 | 0.00 | 0.00 | 0.00 | 38 | 1011.2 |
| 20260505001731 | 26 | 313 | 4.8 | 9.7 | 0.00 | 0.00 | 0.00 | 37 | 1011.2 |
| 20260505001223 | 26 | 207 | 3.2 | 9.7 | 0.00 | 0.00 | 0.00 | 35 | 1011.1 |
| 20260505000731 | 26 | 277 | 3.2 | 6.4 | 0.00 | 0.00 | 0.00 | 34 | 1011.2 |
| 20260505000239 | 26 | 96 | 1.6 | 6.4 | 0.00 | 0.00 | 0.00 | 36 | 1011.2 |
| 20260504235726 | 26 | 155 | 3.2 | 8.0 | 0.00 | 0.00 | 0.00 | 34 | 1011.2 |
| 20260504235234 | 26 | 53 | 4.8 | 8.0 | 0.00 | 0.00 | 0.00 | 32 | 1011.2 |
| 20260504234722 | 26 | 42 | 3.2 | 8.0 | 0.00 | 0.00 | 0.00 | 31 | 1011.2 |
| 20260504234230 | 26 | 312 | 1.6 | 6.4 | 0.00 | 0.00 | 0.00 | 32 | 1011.4 |
| 20260504233738 | 26 | 86 | 3.2 | 14.5 | 0.00 | 0.00 | 0.00 | 32 | 1011.3 |
| 20260504233226 | 26 | 277 | 3.2 | 9.7 | 0.00 | 0.00 | 0.00 | 30 | 1011.3 |
| 20260504232733 | 26 | 157 | 1.6 | 12.9 | 0.00 | 0.00 | 0.00 | 33 | 1011.1 |
| 20260504232225 | 26 | 323 | 3.2 | 12.9 | 0.00 | 0.00 | 0.00 | 33 | 1011.2 |
| 20260504231733 | 26 | 297 | 3.2 | 8.0 | 0.00 | 0.00 | 0.00 | 34 | 1011.2 |
| 20260504231221 | 26 | 215 | 3.2 | 8.0 | 0.00 | 0.00 | 0.00 | 32 | 1011.4 |
| 20260504230729 | 26 | 145 | 1.6 | 11.3 | 0.00 | 0.00 | 0.00 | 30 | 1011.6 |
| 20260504230237 | 26 | 254 | 3.2 | 11.3 | 0.00 | 0.00 | 0.00 | 31 | 1011.8 |
| 20260504225724 | 26 | 165 | 4.8 | 11.3 | 0.00 | 0.00 | 0.00 | 31 | 1011.6 |
| 20260504225232 | 26 | 360 | 4.8 | 11.3 | 0.00 | 0.00 | 0.00 | 32 | 1011.7 |
| 20260504224740 | 26 | 298 | 1.6 | 11.3 | 0.00 | 0.00 | 0.00 | 33 | 1011.7 |
| 20260504224228 | 26 | 297 | 4.8 | 8.0 | 0.00 | 0.00 | 0.00 | 32 | 1011.8 |
| 20260504223740 | 26 | 237 | 3.2 | 9.7 | 0.00 | 0.00 | 0.00 | 32 | 1012.0 |
| 20260504223307 | 26 | 152 | 1.6 | 4.8 | 0.00 | 0.00 | 0.00 | 34 | 1011.9 |
| 20260504222723 | 26 | 262 | 1.6 | 12.9 | 0.00 | 0.00 | 0.00 | 33 | 1011.9 |
| 20260504222231 | 26 | 140 | 3.2 | 12.9 | 0.00 | 0.00 | 0.00 | 32 | 1012.0 |
| 20260504221739 | 26 | 219 | 3.2 | 8.0 | 0.00 | 0.00 | 0.00 | 34 | 1012.0 |
| 20260504221307 | 25 | 20 | 3.2 | 8.0 | 0.00 | 0.00 | 0.00 | 33 | 1012.1 |
| 20260504220804 | 25 | 271 | 3.2 | 6.4 | 0.00 | 0.00 | 0.00 | 34 | 1012.1 |
| 20260504220259 | 25 | 261 | 4.8 | 8.0 | 0.00 | 0.00 | 0.00 | 34 | 1012.1 |
| 20260504215735 | 25 | 284 | 1.6 | 8.0 | 0.00 | 0.00 | 0.00 | 35 | 1012.1 |
| 20260504215223 | 25 | 346 | 3.2 | 16.1 | 0.00 | 0.00 | 0.00 | 37 | 1012.2 |
| 20260504214731 | 25 | 311 | 8.0 | 16.1 | 0.00 | 0.00 | 0.00 | 35 | 1012.2 |
| 20260504214239 | 25 | 355 | 3.2 | 11.3 | 0.00 | 0.00 | 0.00 | 37 | 1012.3 |
| 20260504213727 | 25 | 184 | 1.6 | 11.3 | 0.00 | 0.00 | 0.00 | 38 | 1012.3 |
| 20260504213233 | 25 | 330 | 3.2 | 12.9 | 0.00 | 0.00 | 0.00 | 39 | 1012.3 |
| 20260504212724 | 24 | 334 | 4.8 | 12.9 | 0.00 | 0.00 | 0.00 | 39 | 1012.4 |
| 20260504212232 | 24 | 311 | 3.2 | 16.1 | 0.00 | 0.00 | 0.00 | 39 | 1012.5 |
| 20260504211739 | 23 | 270 | 9.7 | 16.1 | 0.00 | 0.00 | 0.00 | 38 | 1012.5 |
| 20260504211227 | 23 | 284 | 4.8 | 12.9 | 0.00 | 0.00 | 0.00 | 39 | 1012.5 |
| 20260504210755 | 23 | 270 | 3.2 | 16.1 | 0.00 | 0.00 | 0.00 | 38 | 1012.5 |
| 20260504210723 | 23 | 270 | 3.2 | 16.1 | 0.00 | 0.00 | 0.00 | 38 | 1012.5 |
| 20260504210311 | 23 | 337 | 4.8 | 11.3 | 0.00 | 0.00 | 0.00 | 41 | 1012.5 |
| 20260504210239 | 23 | 337 | 4.8 | 11.3 | 0.00 | 0.00 | 0.00 | 41 | 1012.5 |
| 20260504205726 | 23 | 263 | 3.2 | 12.9 | 0.00 | 0.00 | 0.00 | 41 | 1012.5 |
| 20260504205234 | 24 | 239 | 4.8 | 12.9 | 0.00 | 0.00 | 0.00 | 41 | 1012.5 |
| 20260504204722 | 23 | 22 | 1.6 | 16.1 | 0.00 | 0.00 | 0.00 | 45 | 1012.5 |
| 20260504204230 | 23 | 243 | 6.4 | 16.1 | 0.00 | 0.00 | 0.00 | 42 | 1012.5 |
| 20260504203737 | 23 | 303 | 1.6 | 8.0 | 0.00 | 0.00 | 0.00 | 44 | 1012.5 |
| 20260504203305 | 23 | 144 | 1.6 | 11.3 | 0.00 | 0.00 | 0.00 | 42 | 1012.5 |
| 20260504203233 | 23 | 144 | 1.6 | 11.3 | 0.00 | 0.00 | 0.00 | 42 | 1012.5 |
| 20260504202724 | 23 | 277 | 4.8 | 11.3 | 0.00 | 0.00 | 0.00 | 41 | 1012.5 |
| 20260504202232 | 23 | 323 | 6.4 | 11.3 | 0.00 | 0.00 | 0.00 | 43 | 1012.4 |
| 20260504201740 | 23 | 104 | 1.6 | 14.5 | 0.00 | 0.00 | 0.00 | 44 | 1012.4 |
| 20260504201228 | 23 | 265 | 4.8 | 14.5 | 0.00 | 0.00 | 0.00 | 46 | 1012.4 |
| 20260504200756 | 22 | 329 | 9.7 | 14.5 | 0.00 | 0.00 | 0.00 | 45 | 1012.4 |
| 20260504200313 | 22 | 311 | 4.8 | 14.5 | 0.00 | 0.00 | 0.00 | 45 | 1012.5 |
| 20260504200241 | 22 | 311 | 4.8 | 14.5 | 0.00 | 0.00 | 0.00 | 45 | 1012.5 |
| 20260504195728 | 23 | 281 | 6.4 | 14.5 | 0.00 | 0.00 | 0.00 | 44 | 1012.5 |
| 20260504195236 | 23 | 259 | 4.8 | 12.9 | 0.00 | 0.00 | 0.00 | 44 | 1012.8 |
| 20260504194724 | 23 | 146 | 3.2 | 9.7 | 0.00 | 0.00 | 0.00 | 45 | 1012.8 |
| 20260504194232 | 23 | 250 | 1.6 | 9.7 | 0.00 | 0.00 | 0.00 | 44 | 1012.8 |
| 20260504193800 | 23 | 302 | 4.8 | 11.3 | 0.00 | 0.00 | 0.00 | 44 | 1012.6 |
| 20260504193237 | 23 | 300 | 4.8 | 11.3 | 0.00 | 0.00 | 0.00 | 44 | 1012.6 |
| 20260504192724 | 23 | 298 | 3.2 | 11.3 | 0.00 | 0.00 | 0.00 | 45 | 1012.7 |
| 20260504192236 | 22 | 202 | 3.2 | 9.7 | 0.00 | 0.00 | 0.00 | 45 | 1012.8 |
| 20260504191724 | 22 | 284 | 3.2 | 14.5 | 0.00 | 0.00 | 0.00 | 48 | 1012.9 |
| 20260504191232 | 22 | 263 | 6.4 | 14.5 | 0.00 | 0.00 | 0.00 | 47 | 1012.7 |
| 20260504190800 | 23 | 271 | 1.6 | 14.5 | 0.00 | 0.00 | 0.00 | 48 | 1012.7 |
| 20260504190236 | 23 | 339 | 1.6 | 11.3 | 0.00 | 0.00 | 0.00 | 48 | 1012.7 |
| 20260504185723 | 22 | 338 | 3.2 | 11.3 | 0.00 | 0.00 | 0.00 | 50 | 1012.8 |
| 20260504185231 | 22 | 285 | 3.2 | 12.9 | 0.00 | 0.00 | 0.00 | 51 | 1012.8 |
| 20260504184739 | 22 | 314 | 4.8 | 14.5 | 0.00 | 0.00 | 0.00 | 50 | 1012.9 |
| 20260504184227 | 22 | 355 | 1.6 | 8.0 | 0.00 | 0.00 | 0.00 | 48 | 1013.0 |
| 20260504183735 | 22 | 295 | 3.2 | 8.0 | 0.00 | 0.00 | 0.00 | 49 | 1012.8 |
| 20260504183227 | 22 | 213 | 1.6 | 6.4 | 0.00 | 0.00 | 0.00 | 47 | 1012.9 |
| 20260504182734 | 23 | 240 | 3.2 | 6.4 | 0.00 | 0.00 | 0.00 | 47 | 1012.8 |
| 20260504182222 | 22 | 53 | 1.6 | 6.4 | 0.00 | 0.00 | 0.00 | 48 | 1012.9 |
| 20260504181730 | 22 | 277 | 3.2 | 6.4 | 0.00 | 0.00 | 0.00 | 49 | 1012.8 |
| 20260504181258 | 22 | 285 | 3.2 | 6.4 | 0.00 | 0.00 | 0.00 | 49 | 1012.8 |
| 20260504180734 | 22 | 345 | 1.6 | 6.4 | 0.00 | 0.00 | 0.00 | 50 | 1012.8 |
| 20260504180301 | 22 | 314 | 1.6 | 6.4 | 0.00 | 0.00 | 0.00 | 51 | 1012.8 |
| 20260504175737 | 21 | 333 | 1.6 | 12.9 | 0.00 | 0.00 | 0.00 | 54 | 1012.7 |
| 20260504175225 | 21 | 263 | 8.0 | 12.9 | 0.00 | 0.00 | 0.00 | 50 | 1012.6 |
| 20260504174733 | 21 | 267 | 3.2 | 9.7 | 0.00 | 0.00 | 0.00 | 50 | 1012.7 |
| 20260504174240 | 21 | 251 | 4.8 | 9.7 | 0.00 | 0.00 | 0.00 | 50 | 1012.6 |
| 20260504173728 | 22 | 161 | 3.2 | 6.4 | 0.00 | 0.00 | 0.00 | 50 | 1012.5 |
| 20260504173256 | 21 | 251 | 1.6 | 4.8 | 0.00 | 0.00 | 0.00 | 51 | 1012.7 |
| 20260504172735 | 21 | 267 | 1.6 | 6.4 | 0.00 | 0.00 | 0.00 | 50 | 1012.6 |
| 20260504172223 | 21 | 27 | 3.2 | 6.4 | 0.00 | 0.00 | 0.00 | 50 | 1012.7 |
| 20260504171810 | 21 | 131 | 0.0 | 11.3 | 0.00 | 0.00 | 0.00 | 53 | 1012.6 |
| 20260504171227 | 21 | 277 | 4.8 | 11.3 | 0.00 | 0.00 | 0.00 | 52 | 1012.6 |
| 20260504170735 | 21 | 273 | 1.6 | 6.4 | 0.00 | 0.00 | 0.00 | 55 | 1012.6 |
| 20260504170223 | 20 | 299 | 1.6 | 4.8 | 0.00 | 0.00 | 0.00 | 55 | 1012.8 |
| 20260504160306 | 19 | 34 | 1.6 | 3.2 | 0.00 | 0.00 | 0.00 | 53 | 1012.2 |
| 20260504160235 | 19 | 34 | 1.6 | 3.2 | 0.00 | 0.00 | 0.00 | 53 | 1012.2 |
| 20260504150755 | 15 | 82 | 0.0 | 0.0 | 0.00 | 0.00 | 0.00 | 73 | 1011.8 |
| 20260504150232 | 15 | 82 | 0.0 | 3.2 | 0.00 | 0.00 | 0.00 | 75 | 1011.8 |
| 20260504141259 | 11 | 105 | 0.0 | 0.0 | 0.00 | 0.00 | 0.00 | 86 | 1011.4 |
| 20260504141227 | 11 | 105 | 0.0 | 0.0 | 0.00 | 0.00 | 0.00 | 86 | 1011.4 |
| 20260504140735 | 11 | 105 | 0.0 | 0.0 | 0.00 | 0.00 | 0.00 | 87 | 1011.4 |
| 20260504140222 | 10 | 105 | 0.0 | 0.0 | 0.00 | 0.00 | 0.00 | 88 | 1011.3 |